Temperature
14 14 13 13 12 11 11 10 9 9 8 8 7 7 7 7 7 7 7 7 7 7 7 7 7 8 8 9 9 10 11 11 11 11 10 9 9 9 9 10 10 11 11
15 14 13 13 12 12 11 10 10 9 8 8 8 7 7 7 7 7 7 7 7 6 6 6 7 7 7 8 9 9 10 10 10 10 10 9 8 8 8 9 9 9 9
15 14 14 13 13 12 11 11 10 9 9 8 8 8 7 7 7 7 7 6 6 6 6 6 6 7 7 7 8 9 9 9 9 9 9 9 7 7 7 7 7 7 8
14 14 14 13 13 12 12 11 10 10 9 9 8 8 8 7 7 7 7 7 7 7 6 6 6 7 7 8 8 8 9 9 9 9 9 9 8 6 6 6 6 6 6
14 14 14 13 13 13 12 11 11 10 10 9 9 9 8 8 8 7 7 7 7 7 7 7 7 7 7 8 8 9 9 9 9 9 9 9 8 6 6 6 6 6 6
14 14 14 13 13 13 12 11 11 11 10 10 10 9 9 9 8 8 8 7 7 7 7 7 7 7 8 8 8 9 9 9 9 9 9 9 8 7 6 6 6 6 6
14 13 14 13 13 12 12 11 11 11 11 10 10 10 10 9 9 9 8 8 8 7 7 7 8 8 8 8 8 8 8 8 9 9 9 9 8 7 6 6 6 6 6
14 13 14 13 12 12 12 11 11 11 11 10 10 10 10 10 9 9 8 8 8 8 8 8 8 8 8 8 8 8 8 8 8 8 8 8 8 7 6 6 6 6 6
13 13 13 13 12 12 12 11 11 11 11 10 10 10 10 9 9 9 9 8 8 8 8 8 7 7 7 7 7 7 7 7 8 8 8 8 8 7 6 6 6 5 5
12 12 13 13 12 12 12 11 11 11 11 10 10 10 10 9 9 9 9 8 8 8 8 8 7 7 7 7 7 7 7 7 7 7 7 7 7 7 6 6 5 5 4
12 12 12 12 12 12 12 11 11 11 10 10 10 10 10 9 9 9 9 8 8 8 8 8 7 7 7 7 7 7 7 7 7 7 7 7 7 6 6 6 5 5 4
14 13 12 11 12 11 11 11 11 10 10 10 10 10 9 9 9 9 9 8 8 8 8 8 7 7 7 7 7 7 6 6 6 6 6 6 6 6 6 6 5 4 4
16 14 13 12 11 11 10 10 11 10 10 10 10 10 9 9 9 9 9 8 8 8 8 8 7 7 7 6 6 6 6 6 6 6 6 6 5 5 5 5 5 4 3
15 15 14 13 11 10 10 10 10 10 11 11 10 10 10 9 9 9 9 8 8 8 8 8 7 7 7 6 6 6 6 5 5 5 5 5 5 5 5 5 4 4 3
16 15 15 14 12 11 10 10 10 10 10 11 10 10 10 10 9 9 9 8 8 8 8 7 7 7 6 6 6 5 5 5 5 5 5 5 5 4 4 4 4 3 2
15 15 15 14 13 12 11 11 11 10 10 10 10 10 10 10 9 9 9 8 8 8 7 7 7 6 6 6 6 5 5 5 5 5 4 4 4 4 4 4 3 3 2
15 15 15 14 13 13 12 11 11 11 10 10 10 10 10 10 9 9 9 8 8 7 7 7 6 6 6 6 5 5 5 5 4 4 4 4 4 4 3 3 3 2 1
15 14 14 14 13 13 12 12 11 11 10 10 10 11 10 10 9 9 9 8 8 7 7 7 6 6 6 6 5 5 5 5 4 4 4 4 3 3 3 3 2 2 1
15 14 14 14 14 13 12 12 11 11 10 10 10 11 11 10 9 9 9 8 8 7 7 7 7 6 6 6 5 5 5 4 4 4 4 3 3 3 3 2 2 1 1
16 14 13 13 13 12 11 11 10 10 10 10 10 10 11 11 10 9 9 8 8 7 7 7 7 6 6 5 5 4 4 4 4 4 3 3 3 3 2 2 2 1 1
16 15 13 13 12 12 11 11 11 11 11 11 10 10 10 10 10 9 9 8 8 8 7 7 6 6 5 5 4 4 4 4 4 4 3 3 3 2 2 1 1 1 0
16 15 14 13 12 12 12 13 12 12 12 12 11 10 10 10 10 10 9 9 8 8 7 7 6 6 5 5 4 4 2 3 3 3 3 3 3 2 2 1 1 -0 -1
16 15 14 13 12 12 12 11 10 10 10 10 11 11 11 10 10 10 10 9 9 8 8 7 7 6 5 5 4 3 3 3 2 1 1 1 1 1 1 1 0 -0 -1
16 15 14 13 12 12 11 10 10 11 11 13 12 12 11 10 10 10 9 9 8 8 8 7 7 6 5 4 3 3 3 2 2 1 -0 -0 -0 0 0 0 -0 -1 -1
15 14 14 13 12 11 10 10 10 10 11 10 10 9 9 9 9 9 8 8 8 7 7 7 6 5 5 5 4 3 2 1 1 0 -1 -0 -1 -1 -1 -1 -1 -1 -2
15 14 13 13 12 11 10 9 9 9 9 8 8 8 8 8 8 8 7 7 7 7 6 6 5 4 4 3 3 3 3 2 2 1 0 0 -0 -1 -1 -2 -2 -2 -2
Wind_Speed
12 22 22 19 17 15 13 12 11 11 11 11 12 12 13 13 14 14 15 16 17 17 18 18 19 20 21 21 22 22 22 22 22 22 22 25 25 25 25 25 23 22 25
15 23 24 21 18 16 14 13 12 11 11 11 11 11 12 12 13 13 14 15 15 16 16 17 18 18 19 20 20 20 20 20 20 20 21 21 23 24 24 24 24 22 24
20 24 24 22 20 18 16 14 13 12 11 11 11 11 11 12 12 12 13 13 14 14 15 16 16 17 18 18 19 19 18 18 19 19 19 20 20 23 23 23 23 23 23
22 24 23 23 21 19 17 15 14 13 12 11 11 11 11 11 11 11 11 12 12 13 13 14 15 15 16 17 18 18 17 17 18 17 17 19 19 21 22 22 22 22 22
21 24 24 25 22 20 18 17 15 14 13 12 12 11 10 10 10 10 10 10 11 11 12 12 13 13 14 15 16 17 16 16 17 16 17 19 18 20 21 21 21 21 21
17 24 26 26 23 21 19 18 16 15 14 13 12 11 10 10 10 9 9 9 9 9 10 11 11 12 13 14 15 15 15 15 14 14 15 17 18 19 20 21 21 21 21
14 23 26 26 24 22 20 19 18 16 15 13 12 12 11 10 9 9 8 8 8 8 8 9 9 10 11 12 13 14 14 13 14 13 14 17 18 19 20 20 20 20 20
13 22 26 26 24 23 21 20 19 17 16 14 13 12 11 10 9 9 8 7 6 6 6 7 7 8 9 10 11 12 13 13 12 12 13 16 18 18 19 19 19 19 20
16 19 23 23 24 23 22 21 20 19 17 16 14 13 12 11 9 9 8 6 5 5 5 5 5 5 7 8 9 10 10 11 12 12 11 14 16 17 17 18 18 18 18
11 14 21 22 22 22 22 22 21 20 19 17 15 14 13 11 10 9 8 7 5 4 3 3 2 2 3 5 7 8 8 10 10 10 10 12 15 15 16 16 16 17 17
12 10 16 21 22 22 21 22 22 21 20 19 17 16 14 12 11 10 9 9 7 5 4 2 1 1 2 1 4 6 7 8 8 7 6 11 13 14 15 15 15 16 16
16 15 10 16 21 23 22 21 21 20 19 19 18 17 16 15 15 13 12 10 8 7 6 5 4 5 4 1 3 3 5 7 6 6 6 10 12 14 14 15 15 15 15
16 15 13 12 19 21 19 20 19 19 19 20 21 21 19 16 13 11 13 12 10 10 10 9 9 9 4 1 2 2 2 3 4 5 6 9 11 12 13 14 14 14 15
14 17 15 13 13 18 19 17 19 18 18 19 21 24 20 15 14 14 14 16 15 14 13 12 11 9 6 5 4 3 3 3 4 4 6 9 11 12 13 13 14 14 15
18 18 17 14 12 14 14 14 16 16 17 20 21 23 22 16 13 14 14 15 16 16 15 12 12 10 9 7 6 6 5 5 6 6 7 9 11 12 13 13 14 14 15
19 19 17 17 14 14 11 10 12 15 17 19 19 22 23 20 17 14 13 14 15 16 15 15 13 9 8 7 7 7 7 8 8 8 9 10 12 13 13 14 14 14 15
16 18 19 17 15 14 12 13 14 16 18 17 19 23 24 22 20 18 13 12 16 17 16 14 12 8 6 6 6 9 10 9 9 10 11 10 11 13 14 14 14 15 16
14 17 19 18 18 16 13 13 13 16 17 18 20 23 25 25 23 19 13 12 18 18 15 10 6 5 6 6 5 6 8 9 10 12 13 13 13 13 14 15 16 16 17
16 16 18 18 18 17 13 12 13 14 15 18 20 21 24 26 25 20 15 15 18 15 12 9 6 7 6 6 6 6 5 6 9 12 13 15 15 16 15 16 17 18 19
16 15 17 17 16 14 12 10 9 10 10 16 18 20 22 25 26 22 16 16 17 9 9 8 8 8 6 5 6 6 6 5 8 10 12 14 15 16 17 17 18 18 20
15 14 16 17 16 14 13 14 14 14 11 10 12 20 23 24 25 23 14 14 14 11 11 11 8 8 8 5 3 4 6 9 10 9 11 11 13 16 18 18 18 19 18
13 14 14 16 17 15 14 13 10 10 9 10 8 16 23 24 25 25 17 11 11 11 13 13 10 8 7 8 5 3 4 5 9 12 8 8 9 13 15 18 19 19 20
10 13 13 14 16 17 14 8 7 7 7 10 12 14 16 23 25 23 22 15 12 13 14 16 14 14 11 10 8 6 5 8 3 4 9 9 9 7 9 14 18 20 21
7 10 12 12 14 14 15 13 14 15 17 17 12 11 12 18 21 24 22 20 13 13 14 15 16 13 10 9 8 8 6 5 5 3 4 7 10 10 10 12 15 19 22
3 7 9 11 12 12 14 16 15 17 15 10 9 11 14 14 17 20 21 18 16 14 15 14 15 15 14 12 8 6 8 6 5 6 5 5 6 7 9 9 13 17 20
1 3 6 8 10 11 13 15 16 18 14 12 12 13 12 11 13 16 17 16 15 15 15 15 14 16 16 15 12 9 7 6 8 9 11 8 7 6 8 8 8 12 17
Wind_Direction
140 152 155 151 148 144 137 131 123 117 111 104 99 93 88 83 79 75 70 68 65 63 60 59 58 57 56 54 52 50 49 49 49 49 45 43 46 47 45 43 43 37 37
143 153 156 154 152 149 144 138 132 127 120 113 107 100 95 89 84 80 74 71 67 65 61 59 58 57 56 54 52 51 50 50 50 50 45 32 37 44 43 41 40 38 37
145 152 157 156 155 153 150 145 141 136 129 123 116 109 102 96 89 84 79 75 71 67 63 60 58 57 55 53 52 51 51 51 52 51 42 22 22 40 41 39 37 36 35
150 153 159 159 158 157 155 152 149 144 138 132 125 118 110 103 97 90 84 79 75 70 66 61 58 56 55 52 50 49 50 52 54 53 38 24 17 34 38 36 34 34 32
152 156 161 161 161 161 160 159 156 151 147 142 135 128 120 113 105 97 89 83 78 73 68 63 58 55 54 51 48 46 47 52 55 51 42 26 11 28 34 33 31 30 30
155 158 160 164 165 165 165 164 162 159 155 151 145 138 130 122 114 106 99 91 84 78 71 65 58 54 52 48 45 42 43 52 58 52 47 27 11 25 29 28 26 26 25
158 156 161 168 169 169 170 169 167 165 162 159 154 148 142 134 127 120 111 101 91 83 75 67 58 52 49 45 41 38 37 44 57 50 49 25 15 23 24 23 21 20 20
159 154 164 173 173 174 174 174 173 171 169 166 163 158 153 147 142 136 127 115 104 93 81 70 60 50 45 42 38 35 35 40 46 39 48 24 17 19 19 18 17 15 14
162 156 164 176 177 178 179 179 178 177 175 173 171 167 163 158 154 150 144 137 126 113 98 81 64 49 42 39 35 32 34 39 46 42 39 18 14 13 14 13 12 11 10
165 164 166 176 178 180 183 184 183 181 180 178 177 173 171 169 165 163 162 158 152 144 131 110 77 49 38 38 32 29 34 35 39 44 40 13 9 7 7 7 6 5 4
177 176 172 177 179 181 183 188 186 186 185 182 180 180 177 173 173 179 177 173 175 176 175 175 210 274 275 336 30 26 34 26 31 36 36 6 2 359 359 358 358 357 356
188 185 183 181 180 181 185 186 184 186 186 180 176 181 183 192 187 185 179 181 190 196 203 212 234 249 265 319 0 13 29 17 13 11 6 354 352 350 350 349 348 347 347
189 186 188 188 182 181 183 177 182 186 182 184 181 181 192 198 183 168 167 187 198 208 216 217 230 237 237 186 299 332 19 355 341 349 339 333 337 338 339 338 338 337 337
190 193 190 188 185 181 180 178 182 185 183 188 189 181 190 188 180 183 184 186 196 203 214 211 222 217 212 222 228 265 288 290 299 306 306 312 319 322 324 325 326 327 327
195 194 192 188 188 183 179 181 185 186 183 185 188 184 186 184 185 189 197 195 197 199 201 210 222 214 207 217 224 235 250 267 275 284 288 295 301 306 309 312 315 316 317
197 194 191 192 190 186 185 185 188 187 182 184 188 190 190 188 188 192 196 198 199 203 199 204 216 210 208 213 223 236 244 252 258 266 272 278 288 294 297 299 302 305 307
197 192 191 193 191 190 191 191 192 191 186 189 190 194 197 195 192 193 197 196 198 202 202 204 214 208 210 214 220 233 238 241 250 260 266 267 268 277 284 287 290 293 296
197 191 190 193 194 194 192 194 196 196 194 195 194 196 200 201 198 195 197 198 196 197 198 195 200 192 208 211 218 227 227 228 237 249 255 256 254 256 265 276 282 284 288
198 190 188 189 192 194 191 193 199 201 202 200 200 198 200 202 202 199 199 199 194 193 194 197 197 196 203 209 214 220 221 226 234 244 244 244 244 245 249 260 271 277 281
192 188 186 187 189 189 190 194 200 209 208 206 205 204 200 202 203 203 202 199 194 192 194 196 199 199 202 200 217 229 226 226 233 236 238 242 240 240 243 246 253 263 272
183 185 184 186 188 188 194 200 203 210 210 209 207 206 202 201 201 203 204 201 198 199 199 196 192 198 204 183 192 260 256 236 234 232 228 228 231 234 237 238 241 245 254
182 186 186 187 189 193 200 203 204 204 210 214 210 211 207 203 201 205 205 202 201 201 201 200 195 193 197 185 175 188 263 269 234 229 215 216 221 225 229 236 238 240 242
187 189 195 192 193 195 194 192 198 204 209 216 216 215 211 207 205 206 208 206 204 204 208 205 198 196 202 197 186 171 191 227 254 230 215 217 216 215 223 231 237 240 242
203 196 196 196 197 195 192 199 202 209 217 220 217 215 212 212 210 209 209 209 209 210 212 209 206 202 194 199 203 210 200 171 182 250 258 225 219 221 224 233 239 239 240
213 197 198 199 203 198 199 205 211 221 228 227 217 217 216 216 216 214 212 211 214 215 214 211 209 206 206 204 196 188 213 219 195 196 241 241 231 225 225 227 234 237 239
331 192 196 204 213 207 205 209 215 224 227 227 225 224 221 219 218 217 215 215 216 218 217 214 212 212 212 212 210 199 184 186 202 205 220 224 229 231 228 228 232 235 240
Height
1559 1562 1565 1567 1568 1569 1570 1571 1572 1572 1573 1573 1573 1573 1573 1573 1572 1572 1572 1571 1570 1569 1569 1568 1567 1565 1564 1562 1561 1560 1560 1559 1559 1559 1559 1559 1560 1559 1558 1558 1557 1557 1557
1557 1560 1563 1566 1567 1569 1570 1571 1571 1572 1573 1573 1573 1573 1573 1573 1572 1572 1572 1571 1570 1570 1569 1568 1567 1566 1564 1563 1561 1560 1560 1559 1559 1559 1559 1558 1559 1559 1558 1558 1557 1557 1557
1556 1559 1562 1564 1566 1568 1569 1570 1571 1571 1572 1572 1573 1573 1573 1572 1572 1572 1571 1571 1570 1569 1569 1568 1567 1566 1565 1563 1562 1561 1560 1560 1559 1559 1559 1558 1558 1559 1558 1558 1557 1557 1556
1554 1557 1560 1562 1565 1566 1568 1569 1570 1571 1571 1572 1572 1572 1572 1572 1572 1572 1571 1571 1570 1569 1568 1568 1567 1566 1565 1564 1563 1562 1561 1560 1560 1559 1559 1558 1558 1559 1558 1557 1557 1556 1555
1552 1555 1558 1560 1563 1565 1566 1568 1569 1570 1570 1571 1571 1572 1572 1572 1571 1571 1571 1570 1570 1569 1568 1567 1567 1566 1565 1565 1564 1563 1562 1561 1560 1560 1559 1558 1558 1559 1558 1557 1557 1556 1555
1551 1552 1555 1558 1561 1563 1565 1566 1567 1568 1569 1570 1570 1571 1571 1571 1571 1570 1570 1570 1569 1569 1568 1567 1567 1566 1565 1565 1564 1563 1563 1562 1561 1560 1559 1559 1558 1558 1558 1557 1556 1555 1555
1549 1550 1552 1556 1558 1561 1562 1564 1566 1567 1568 1569 1569 1570 1570 1570 1570 1570 1569 1569 1569 1568 1568 1567 1566 1566 1565 1565 1564 1564 1563 1563 1561 1560 1560 1559 1558 1558 1557 1556 1555 1554 1554
1547 1548 1550 1553 1556 1558 1560 1562 1563 1565 1566 1567 1567 1568 1568 1569 1569 1569 1568 1568 1568 1567 1567 1566 1566 1565 1565 1564 1564 1564 1563 1562 1562 1561 1560 1559 1558 1557 1556 1555 1554 1553 1552
1545 1545 1547 1550 1553 1555 1557 1559 1561 1562 1563 1564 1565 1566 1567 1567 1567 1567 1567 1567 1567 1566 1566 1566 1565 1565 1564 1564 1564 1563 1562 1562 1561 1560 1559 1558 1557 1556 1555 1554 1553 1552 1551
1542 1543 1543 1546 1549 1551 1554 1556 1558 1559 1560 1562 1563 1564 1565 1565 1565 1565 1565 1565 1565 1565 1565 1564 1564 1564 1564 1563 1563 1562 1561 1561 1560 1559 1558 1557 1556 1555 1554 1553 1551 1550 1549
1538 1539 1540 1542 1544 1547 1550 1552 1554 1556 1557 1558 1560 1561 1562 1563 1563 1563 1563 1563 1563 1563 1563 1563 1563 1562 1562 1562 1562 1561 1560 1559 1558 1557 1556 1555 1554 1553 1552 1551 1550 1549 1548
1531 1534 1536 1538 1540 1542 1545 1547 1549 1551 1553 1554 1556 1558 1559 1560 1560 1561 1561 1561 1561 1561 1561 1561 1561 1561 1560 1560 1560 1559 1559 1558 1557 1556 1555 1554 1553 1551 1550 1549 1548 1547 1546
1527 1529 1531 1534 1536 1538 1540 1541 1544 1546 1548 1550 1551 1554 1555 1556 1557 1557 1558 1558 1558 1559 1559 1559 1559 1558 1558 1558 1557 1557 1556 1556 1555 1554 1553 1551 1550 1549 1548 1547 1545 1544 1543
1522 1523 1526 1529 1531 1533 1535 1537 1538 1540 1542 1544 1547 1549 1551 1552 1553 1554 1554 1555 1555 1556 1556 1556 1556 1555 1555 1555 1554 1554 1553 1552 1552 1551 1550 1549 1547 1546 1545 1544 1543 1541 1540
1516 1518 1520 1523 1526 1528 1530 1532 1533 1535 1537 1539 1542 1544 1546 1548 1549 1550 1550 1551 1551 1551 1552 1552 1552 1552 1552 1551 1551 1550 1550 1549 1548 1547 1546 1545 1544 1543 1542 1541 1539 1538 1537
1510 1512 1515 1517 1520 1522 1524 1526 1528 1530 1532 1534 1536 1539 1541 1542 1544 1545 1545 1546 1546 1547 1547 1548 1548 1548 1548 1547 1547 1547 1546 1545 1544 1543 1542 1541 1541 1539 1538 1537 1535 1534 1533
1505 1507 1509 1512 1514 1516 1518 1521 1523 1525 1527 1529 1530 1533 1535 1536 1538 1539 1540 1540 1541 1542 1542 1543 1543 1543 1543 1543 1542 1542 1541 1541 1540 1539 1538 1537 1536 1535 1534 1533 1531 1530 1529
1500 1502 1503 1506 1508 1510 1512 1515 1517 1519 1521 1522 1524 1526 1529 1531 1532 1533 1533 1534 1536 1536 1537 1537 1538 1538 1538 1537 1537 1537 1536 1536 1535 1535 1533 1532 1531 1530 1529 1528 1527 1525 1524
1494 1496 1498 1499 1501 1504 1507 1509 1512 1514 1515 1516 1518 1519 1521 1524 1525 1526 1527 1528 1530 1530 1530 1531 1531 1532 1532 1531 1531 1531 1530 1529 1529 1529 1528 1527 1526 1525 1524 1523 1521 1520 1519
1487 1491 1492 1494 1496 1499 1502 1504 1505 1507 1508 1509 1510 1511 1513 1515 1518 1519 1520 1521 1523 1523 1523 1524 1524 1525 1525 1525 1525 1524 1523 1523 1522 1522 1521 1521 1520 1519 1518 1517 1515 1514 1513
1482 1485 1486 1488 1489 1492 1494 1495 1496 1497 1499 1501 1502 1504 1505 1507 1509 1511 1512 1513 1514 1514 1515 1517 1518 1518 1518 1519 1518 1517 1515 1515 1514 1514 1514 1514 1513 1512 1511 1510 1509 1507 1506
1478 1480 1481 1482 1483 1484 1486 1487 1489 1491 1493 1494 1496 1496 1497 1498 1499 1501 1503 1504 1506 1506 1507 1508 1509 1509 1510 1511 1511 1510 1508 1506 1503 1505 1505 1505 1506 1505 1504 1503 1502 1500 1499
1475 1475 1476 1477 1478 1478 1480 1483 1484 1485 1485 1486 1485 1486 1488 1489 1490 1491 1493 1495 1496 1497 1497 1498 1499 1500 1500 1501 1501 1503 1501 1497 1497 1495 1495 1496 1498 1497 1497 1496 1495 1493 1492
1473 1473 1473 1473 1473 1474 1475 1475 1475 1475 1473 1473 1476 1478 1480 1482 1482 1483 1484 1485 1486 1487 1487 1488 1489 1490 1491 1490 1490 1490 1491 1492 1491 1488 1487 1487 1488 1488 1489 1489 1487 1486 1484
1471 1470 1469 1469 1469 1470 1470 1470 1470 1469 1468 1471 1472 1472 1472 1473 1474 1474 1475 1475 1476 1476 1476 1478 1478 1479 1479 1480 1479 1479 1480 1481 1481 1481 1478 1477 1478 1478 1480 1480 1479 1478 1477
1469 1468 1466 1466 1465 1466 1466 1465 1464 1463 1464 1465 1465 1464 1465 1465 1464 1465 1465 1465 1465 1466 1466 1467 1468 1469 1468 1469 1470 1469 1468 1468 1467 1468 1467 1466 1468 1469 1470 1471 1471 1470 1469